| time (UTC) | temp C | wind direction | speed KPH | gust KPH | rain 1hr cm | rain 24hr cm | rain mn cm | humidity % | barometer mb |
| 20260507140802 | 26 | 307 | 0.0 | 8.0 | 0.00 | 0.00 | 0.00 | 69 | 1019.1 |
| 20260507133802 | 25 | 341 | 1.6 | 20.9 | 0.00 | 0.00 | 0.00 | 69 | 1018.5 |
| 20260507130802 | 25 | 359 | 0.0 | 22.5 | 0.00 | 0.00 | 0.00 | 69 | 1018.3 |
| 20260507123802 | 25 | 359 | 3.2 | 16.1 | 0.00 | 0.00 | 0.00 | 69 | 1018.3 |
| 20260507120802 | 25 | 338 | 0.0 | 9.7 | 0.00 | 0.00 | 0.00 | 69 | 1018.0 |
| 20260507113802 | 25 | 359 | 0.0 | 20.9 | 0.00 | 0.00 | 0.00 | 69 | 1017.8 |
| 20260507110802 | 25 | 359 | 0.0 | 19.3 | 0.00 | 0.00 | 0.00 | 69 | 1017.4 |
| 20260507103802 | 25 | 359 | 0.0 | 16.1 | 0.00 | 0.00 | 0.00 | 69 | 1016.9 |
| 20260507100802 | 25 | 359 | 0.0 | 16.1 | 0.00 | 0.00 | 0.00 | 69 | 1016.8 |
| 20260507093802 | 25 | 340 | 0.0 | 14.5 | 0.00 | 0.00 | 0.00 | 69 | 1016.7 |
| 20260507090802 | 25 | 359 | 4.8 | 9.7 | 0.00 | 0.00 | 0.00 | 69 | 1017.0 |
| 20260507083802 | 25 | 334 | 0.0 | 16.1 | 0.00 | 0.00 | 0.00 | 69 | 1017.1 |
| 20260507080802 | 25 | 8 | 6.4 | 16.1 | 0.00 | 0.00 | 0.00 | 69 | 1016.9 |
| 20260507073802 | 25 | 326 | 6.4 | 20.9 | 0.00 | 0.00 | 0.00 | 69 | 1017.3 |
| 20260507070802 | 25 | 331 | 0.0 | 16.1 | 0.00 | 0.00 | 0.00 | 69 | 1017.8 |
| 20260507060802 | 25 | 359 | 0.0 | 19.3 | 0.00 | 0.00 | 0.00 | 69 | 1018.1 |
| 20260507053802 | 25 | 343 | 1.6 | 20.9 | 0.00 | 0.00 | 0.00 | 69 | 1018.3 |
| 20260507050802 | 25 | 30 | 6.4 | 25.7 | 0.00 | 0.00 | 0.00 | 69 | 1018.3 |
| 20260507043802 | 25 | 42 | 16.1 | 20.9 | 0.00 | 0.00 | 0.00 | 69 | 1018.5 |
| 20260507040802 | 25 | 359 | 0.0 | 16.1 | 0.00 | 0.00 | 0.00 | 69 | 1018.7 |
| 20260507033802 | 25 | 354 | 4.8 | 20.9 | 0.00 | 0.00 | 0.00 | 69 | 1018.6 |
| 20260507030802 | 25 | 11 | 1.6 | 25.7 | 0.00 | 0.00 | 0.00 | 69 | 1018.3 |
| 20260507023802 | 25 | 359 | 0.0 | 8.0 | 0.00 | 0.00 | 0.00 | 69 | 1018.0 |
| 20260507020802 | 25 | 359 | 3.2 | 14.5 | 0.00 | 0.00 | 0.00 | 69 | 1017.6 |
| 20260507013802 | 25 | 359 | 0.0 | 16.1 | 0.00 | 0.00 | 0.00 | 69 | 1017.6 |
| 20260507010802 | 25 | 359 | 0.0 | 17.7 | 0.00 | 0.00 | 0.00 | 69 | 1017.4 |
| 20260507003802 | 26 | 27 | 0.0 | 22.5 | 0.00 | 0.00 | 0.00 | 69 | 1017.2 |
| 20260507000802 | 26 | 354 | 0.0 | 9.7 | 0.00 | 0.00 | 0.00 | 69 | 1017.2 |
| 20260506233802 | 26 | 15 | 0.0 | 12.9 | 0.00 | 0.00 | 0.00 | 69 | 1017.0 |
| 20260506230802 | 26 | 4 | 0.0 | 20.9 | 0.00 | 0.00 | 0.00 | 69 | 1017.2 |
| 20260506223802 | 26 | 359 | 3.2 | 16.1 | 0.00 | 0.00 | 0.00 | 69 | 1016.7 |
| 20260506220802 | 27 | 347 | 4.8 | 16.1 | 0.00 | 0.00 | 0.00 | 69 | 1016.2 |
| 20260506213802 | 27 | 317 | 0.0 | 12.9 | 0.00 | 0.00 | 0.00 | 69 | 1016.3 |
| 20260506210802 | 27 | 28 | 0.0 | 14.5 | 0.00 | 0.00 | 0.00 | 69 | 1016.6 |
| 20260506203802 | 27 | 354 | 0.0 | 14.5 | 0.00 | 0.00 | 0.00 | 69 | 1016.7 |
| 20260506200802 | 26 | 23 | 0.0 | 14.5 | 0.00 | 0.00 | 0.00 | 69 | 1016.6 |
| 20260506193802 | 27 | 23 | 6.4 | 24.1 | 0.00 | 0.00 | 0.00 | 69 | 1016.8 |
| 20260506190802 | 28 | 316 | 8.0 | 9.7 | 0.00 | 0.00 | 0.00 | 69 | 1017.2 |
| 20260506183802 | 28 | 354 | 0.0 | 14.5 | 0.00 | 0.00 | 0.00 | 69 | 1017.8 |
| 20260506180802 | 27 | 331 | 0.0 | 14.5 | 0.00 | 0.00 | 0.00 | 69 | 1018.3 |
| 20260506173802 | 27 | 341 | 0.0 | 14.5 | 0.00 | 0.00 | 0.00 | 69 | 1018.7 |
| 20260506170802 | 27 | 359 | 0.0 | 8.0 | 0.00 | 0.00 | 0.00 | 69 | 1018.7 |
| 20260506163802 | 27 | 359 | 0.0 | 12.9 | 0.00 | 0.00 | 0.00 | 69 | 1018.9 |
| 20260506160802 | 27 | 335 | 0.0 | 9.7 | 0.00 | 0.00 | 0.00 | 69 | 1019.1 |
| 20260506153802 | 27 | 339 | 0.0 | 12.9 | 0.00 | 0.00 | 0.00 | 69 | 1019.6 |
| 20260506150802 | 27 | 359 | 0.0 | 16.1 | 0.00 | 0.00 | 0.00 | 69 | 1019.8 |
| 20260506143802 | 26 | 18 | 0.0 | 12.9 | 0.00 | 0.00 | 0.00 | 69 | 1019.5 |